1534442400.45,49451,21.94,74414.8,3.77,-18.11,-18.45,0,*72
1534442401.73,49452,21.94,74412.3,3.75,-18.01,-18.31,0,*71
1534442402.94,49453,21.94,74414.3,3.77,-17.93,-18.25,0,*73
1534442404.16,49454,21.94,74414.5,3.75,-18.11,-18.45,0,*75
1534442405.36,49455,21.94,74412.3,3.77,-18.11,-18.49,0,*7A
1534442406.55,49456,21.94,74414.3,3.77,-18.11,-18.45,0,*75
1534442407.77,49457,21.94,74412.3,3.77,-18.11,-18.55,0,*75
1534442408.99,49458,21.94,74414.3,3.77,-18.11,-18.55,0,*7A
1534442410.21,49459,21.94,74412.0,3.79,-18.07,-18.41,0,*77
1534442411.43,49460,21.94,74414.3,3.75,-18.11,-18.49,0,*7E
1534442412.68,49461,21.94,74412.5,3.77,-18.01,-18.35,0,*77
1534442413.93,49462,21.94,74410.3,3.75,-18.11,-18.35,0,*77
1534442415.21,49463,21.94,74412.5,3.75,-17.97,-18.31,0,*73
1534442416.45,49464,21.94,74412.5,3.75,-18.11,-18.35,0,*71
1534442417.67,49465,21.94,74412.0,3.75,-17.87,-18.17,0,*70
1534442418.89,49466,21.94,74414.5,3.75,-17.87,-18.25,0,*72
1534442420.11,49467,21.94,74414.5,3.75,-17.87,-18.25,0,*73
1534442421.35,49468,21.94,74414.0,3.75,-17.97,-18.25,0,*7D
1534442422.54,49469,21.94,74412.8,3.77,-18.07,-18.41,0,*7A
1534442423.82,49470,21.94,74410.5,3.75,-18.01,-18.31,0,*71
1534442425.03,49471,21.94,74412.0,3.77,-17.83,-18.11,0,*75
1534442426.25,49472,21.94,74412.5,3.77,-17.97,-18.25,0,*74
1534442427.44,49473,21.94,74412.8,3.77,-18.07,-18.41,0,*71
1534442428.69,49474,21.94,74412.3,3.75,-18.11,-18.35,0,*70
1534442429.93,49475,21.94,74414.3,3.75,-17.97,-18.25,0,*71
1534442431.15,49476,21.94,74412.3,3.75,-17.87,-18.25,0,*73
1534442432.37,49477,21.94,74412.5,3.75,-18.11,-18.45,0,*74
1534442433.56,49478,21.94,74414.5,3.77,-18.07,-18.49,0,*72
1534442434.78,49479,21.94,74412.0,3.75,-18.17,-18.49,0,*70
1534442436.01,49480,21.94,74410.3,3.77,-17.97,-18.41,0,*7B
1534442437.28,49481,21.94,74414.3,3.75,-18.01,-18.31,0,*7F
1534442438.56,49482,21.94,74414.8,3.75,-17.97,-18.35,0,*78
1534442439.78,49483,21.94,74416.3,3.77,-18.01,-18.45,0,*7C
1534442441.0,49484,21.94,74412.5,3.75,-17.87,-18.25,0,*7E
1534442442.28,49485,21.94,74414.5,3.75,-17.97,-18.31,0,*7B
1534442443.53,49486,21.94,74416.3,3.75,-17.87,-18.35,0,*7D
1534442444.79,49487,21.94,74412.8,3.77,-17.97,-18.31,0,*7B
1534442446.01,49488,21.94,74412.0,3.75,-18.11,-18.49,0,*78
1534442447.22,49489,21.94,74414.5,3.75,-18.25,-18.49,0,*7E
1534442448.45,49490,21.94,74412.8,3.75,-18.17,-18.49,0,*77
1534442449.66,49491,21.94,74414.0,3.75,-18.11,-18.49,0,*70
1534442450.94,49492,21.94,74412.0,3.75,-17.97,-18.31,0,*7D
1534442452.16,49493,21.94,74414.5,3.75,-17.87,-18.25,0,*78
1534442453.44,49494,21.94,74412.5,3.75,-17.97,-18.35,0,*7F
1534442454.66,49495,21.94,74414.5,3.75,-17.83,-18.17,0,*7B
1534442455.86,49496,21.94,74416.3,3.77,-17.83,-18.11,0,*7C
1534442457.14,49497,21.94,74412.8,3.75,-17.97,-18.35,0,*7C
1534442458.36,49498,21.94,74414.8,3.75,-18.17,-18.49,0,*7F
1534442459.6,49499,21.94,74416.0,3.75,-18.17,-18.59,0,*7F
1534442460.87,49500,21.94,74416.5,3.75,-18.01,-18.31,0,*77
1534442462.13,49501,21.94,74412.8,3.75,-17.87,-18.31,0,*77
1534442463.4,49502,21.94,74414.8,3.75,-18.01,-18.31,0,*75
1534442464.68,49503,21.94,74414.5,3.75,-18.01,-18.31,0,*74
1534442465.9,49504,21.94,74412.8,3.75,-18.17,-18.49,0,*7B
1534442467.17,49505,21.94,74416.8,3.75,-18.01,-18.35,0,*76
1534442468.42,49506,21.94,74414.3,3.75,-17.97,-18.17,0,*75
1534442469.64,49507,21.94,74414.5,3.75,-17.83,-18.25,0,*70
1534442470.85,49508,21.94,74412.0,3.75,-17.87,-18.25,0,*7B
1534442472.07,49509,21.94,74412.3,3.75,-17.87,-18.25,0,*7A
1534442473.34,49510,21.94,74414.3,3.75,-18.01,-18.31,0,*76
1534442474.62,49511,21.94,74414.3,3.75,-17.97,-18.31,0,*77
1534442475.84,49512,21.94,74412.5,3.75,-17.87,-18.25,0,*70
1534442477.09,49513,21.94,74414.3,3.75,-18.11,-18.35,0,*70
1534442478.31,49514,21.94,74414.3,3.75,-18.11,-18.45,0,*70
1534442479.53,49515,21.94,74412.3,3.75,-18.25,-18.49,0,*7A
1534442480.75,49516,21.94,74416.0,3.75,-18.17,-18.49,0,*78
1534442481.96,49517,21.94,74414.3,3.75,-17.87,-18.25,0,*75
1534442483.18,49518,21.94,74414.3,3.75,-17.87,-18.25,0,*7A
1534442484.4,49519,21.94,74412.3,3.73,-18.11,-18.35,0,*7C
1534442485.6,49520,21.94,74412.8,3.73,-18.11,-18.49,0,*7D
1534442486.86,49521,21.94,74412.0,3.73,-18.01,-18.35,0,*76
1534442488.05,49522,21.94,74412.5,3.73,-18.11,-18.45,0,*73
1534442489.27,49523,21.94,74416.5,3.75,-18.25,-18.49,0,*7F
1534442490.47,49524,21.94,74412.3,3.73,-18.25,-18.65,0,*70
1534442491.67,49525,21.94,74412.8,3.73,-18.17,-18.45,0,*72
1534442492.87,49526,21.94,74416.8,3.73,-17.87,-18.25,0,*71
1534442494.12,49527,21.94,74418.0,3.73,-18.01,-18.35,0,*70
1534442495.4,49528,21.94,74418.8,3.75,-17.97,-18.35,0,*79
1534442496.6,49529,21.94,74416.5,3.73,-17.73,-18.11,0,*72
1534442497.81,49530,21.94,74412.8,3.73,-17.73,-18.11,0,*7A
1534442499.01,49531,21.94,74414.3,3.73,-17.83,-18.11,0,*74
1534442500.24,49532,21.94,74416.5,3.73,-17.97,-18.25,0,*75
1534442501.47,49533,21.94,74414.3,3.73,-17.87,-18.31,0,*70
1534442502.74,49534,21.94,74414.3,3.75,-18.01,-18.35,0,*74
1534442504.02,49535,21.94,74416.5,3.75,-17.97,-18.31,0,*71
1534442505.3,49536,21.94,74418.0,3.75,-17.97,-18.31,0,*72
1534442506.52,49537,21.94,74416.3,3.75,-17.87,-18.17,0,*76
1534442507.77,49538,21.94,74416.3,3.75,-18.11,-18.35,0,*79
1534442509.0,49539,21.94,74416.8,3.73,-18.11,-18.31,0,*7A
1534442510.22,49540,21.94,74416.3,3.73,-18.11,-18.35,0,*70
1534442511.45,49541,21.94,74418.5,3.71,-18.17,-18.41,0,*76
1534442512.69,49542,21.94,74418.8,3.71,-18.17,-18.55,0,*70
1534442513.92,49543,21.94,74418.0,3.73,-18.01,-18.45,0,*75
1534442515.2,49544,21.94,74416.8,3.75,-17.97,-18.31,0,*77
1534442516.47,49545,21.94,74416.8,3.75,-18.01,-18.35,0,*72
1534442517.7,49546,21.94,74418.0,3.73,-18.11,-18.31,0,*72
1534442518.95,49547,21.94,74412.0,3.73,-18.01,-18.35,0,*76
1534442520.18,49548,21.94,74412.3,3.73,-18.11,-18.35,0,*78
1534442521.38,49549,21.94,74412.3,3.73,-18.11,-18.49,0,*72
1534442522.6,49550,21.94,74418.0,3.75,-18.11,-18.45,0,*70
1534442523.82,49551,21.94,74418.0,3.73,-18.01,-18.45,0,*76
1534442525.08,49552,21.94,74416.8,3.73,-18.01,-18.35,0,*72
1534442526.27,49553,21.94,74414.5,3.73,-18.11,-18.49,0,*79
1534442527.5,49554,21.94,74418.8,3.71,-18.21,-18.65,0,*71
1534442528.75,49555,21.94,74418.3,3.73,-18.31,-18.59,0,*7C
1534442530.0,49556,21.94,74412.8,3.71,-18.31,-18.69,0,*7E
1534442531.25,49557,21.94,74414.5,3.71,-18.31,-18.65,0,*73
1534442532.5,49558,21.94,74418.5,3.71,-18.35,-18.69,0,*74
1534442533.75,49559,21.94,74418.0,3.73,-18.31,-18.59,0,*70
1534442534.97,49560,21.94,74418.0,3.71,-18.17,-18.49,0,*7D
1534442536.22,49561,21.94,74418.0,3.71,-18.17,-18.55,0,*71
1534442537.44,49562,21.94,74414.3,3.71,-18.17,-18.49,0,*7F
1534442538.66,49563,21.94,74418.8,3.71,-18.07,-18.41,0,*77
1534442539.88,49564,21.94,74416.0,3.71,-18.17,-18.41,0,*71
1534442541.11,49565,21.94,74418.0,3.71,-18.17,-18.41,0,*70
1534442542.36,49566,21.94,74418.5,3.71,-18.07,-18.35,0,*71
1534442543.58,49567,21.94,74418.0,3.71,-18.07,-18.41,0,*73
1534442544.8,49568,21.94,74414.5,3.71,-18.17,-18.41,0,*7D
1534442546.02,49569,21.94,74420.3,3.71,-18.07,-18.41,0,*7D
1534442547.27,49570,21.94,74416.3,3.71,-18.17,-18.55,0,*71
1534442548.49,49571,21.94,74418.8,3.71,-18.21,-18.49,0,*78
1534442549.69,49572,21.94,74416.8,3.73,-18.17,-18.49,0,*7C
1534442550.94,49573,21.94,74418.0,3.71,-18.21,-18.55,0,*77
1534442552.19,49574,21.94,74416.3,3.67,-18.21,-18.55,0,*77
1534442553.41,49575,21.94,74414.8,3.71,-18.17,-18.49,0,*79
1534442554.63,49576,21.94,74418.8,3.71,-18.17,-18.49,0,*7A
1534442555.88,49577,21.94,74414.5,3.71,-18.21,-18.55,0,*73
1534442557.12,49578,21.94,74416.3,3.67,-18.25,-18.59,0,*73
1534442558.37,49579,21.94,74416.8,3.67,-18.25,-18.55,0,*7E
1534442559.6,49580,21.94,74416.0,3.67,-18.21,-18.45,0,*7D
1534442560.82,49581,21.94,74418.5,3.65,-18.21,-18.55,0,*7F
1534442562.09,49582,21.94,74412.5,3.67,-18.35,-18.59,0,*77
1534442563.3,49583,21.94,74418.8,3.65,-18.25,-18.69,0,*76
1534442564.52,49584,21.94,74416.3,3.65,-18.25,-18.59,0,*72
1534442565.76,49585,21.94,74416.3,3.67,-18.25,-18.59,0,*71
1534442567.01,49586,21.94,74418.5,3.67,-18.35,-18.69,0,*70
1534442568.24,49587,21.94,74418.0,3.65,-18.21,-18.55,0,*79
1534442569.47,49588,21.94,74416.8,3.65,-18.21,-18.55,0,*76
1534442570.69,49589,21.94,74418.5,3.67,-18.11,-18.45,0,*77
1534442571.92,49590,21.94,74416.5,3.65,-18.21,-18.55,0,*7F
1534442573.17,49591,21.94,74416.3,3.67,-18.21,-18.55,0,*7C
1534442574.42,49592,21.94,74416.5,3.67,-18.21,-18.55,0,*7F
1534442575.61,49593,21.94,74418.8,3.65,-18.11,-18.41,0,*7A
1534442576.82,49594,21.94,74416.0,3.65,-18.11,-18.45,0,*79
1534442578.06,49595,21.94,74414.8,3.67,-18.21,-18.59,0,*74
1534442579.26,49596,21.94,74414.5,3.65,-18.25,-18.69,0,*72
1534442580.47,49597,21.88,74414.0,3.65,-18.11,-18.45,0,*7A
1534442581.69,49598,21.94,74416.3,3.67,-18.21,-18.41,0,*70
1534442582.89,49599,21.94,74416.3,3.65,-18.11,-18.41,0,*70
1534442584.11,49600,21.94,74416.5,3.65,-18.21,-18.59,0,*79
1534442585.33,49601,21.94,74416.3,3.65,-18.25,-18.59,0,*7C
1534442586.55,49602,21.88,74414.8,3.65,-18.25,-18.59,0,*7F
1534442587.77,49603,21.94,74414.8,3.65,-18.25,-18.59,0,*7E
1534442589.0,49604,21.94,74418.0,3.65,-18.21,-18.55,0,*71
1534442590.21,49605,21.94,74418.3,3.65,-18.25,-18.59,0,*78
1534442591.43,49606,21.94,74422.3,3.65,-18.25,-18.59,0,*7B
1534442592.64,49607,21.94,74416.5,3.63,-18.41,-18.65,0,*71
1534442593.86,49608,21.94,74414.5,3.65,-18.25,-18.55,0,*79
1534442595.09,49609,21.94,74416.8,3.65,-18.21,-18.55,0,*7C
1534442596.28,49610,21.94,74418.5,3.63,-18.25,-18.65,0,*75
1534442597.5,49611,21.88,74416.8,3.65,-18.25,-18.59,0,*7D
1534442598.73,49612,21.94,74416.8,3.63,-18.31,-18.65,0,*72
1534442599.96,49613,21.94,74418.3,3.63,-18.31,-18.65,0,*73
1534442601.18,49614,21.94,74418.0,3.61,-18.17,-18.45,0,*70
1534442602.4,49615,21.94,74418.8,3.61,-18.25,-18.49,0,*7C
1534442603.64,49616,21.94,74416.5,3.61,-18.17,-18.59,0,*7F
1534442604.84,49617,21.94,74416.3,3.63,-18.17,-18.45,0,*71
1534442606.06,49618,21.94,74416.5,3.61,-18.25,-18.49,0,*71
1534442607.28,49619,21.94,74416.8,3.63,-18.25,-18.59,0,*73
1534442608.53,49620,21.94,74416.5,3.61,-18.11,-18.31,0,*72
1534442609.77,49621,21.94,74418.5,3.61,-18.17,-18.59,0,*7B
1534442610.98,49622,21.94,74422.0,3.63,-18.25,-18.59,0,*7B
1534442612.21,49623,21.94,74416.0,3.63,-17.97,-18.45,0,*71
1534442613.46,49624,21.94,74418.0,3.61,-17.97,-18.41,0,*70
1534442614.7,49625,21.94,74418.5,3.61,-18.01,-18.45,0,*75
1534442615.9,49626,21.94,74416.3,3.63,-18.17,-18.45,0,*73
1534442617.15,49627,21.94,74416.8,3.61,-18.01,-18.49,0,*7B
1534442618.37,49628,21.94,74422.8,3.63,-18.01,-18.41,0,*7E
1534442619.62,49629,21.94,74420.3,3.61,-18.01,-18.41,0,*7D
1534442620.88,49630,21.94,74418.5,3.63,-17.97,-18.31,0,*70
1534442622.1,49631,21.94,74418.5,3.61,-18.11,-18.45,0,*71
1534442623.34,49632,21.88,74416.8,3.61,-18.01,-18.45,0,*73
1534442624.57,49633,21.94,74418.0,3.61,-18.25,-18.65,0,*76
1534442625.8,49634,21.94,74418.5,3.61,-18.11,-18.59,0,*79
1534442627.02,49635,21.88,74418.0,3.63,-18.25,-18.59,0,*7D
1534442628.26,49636,21.88,74416.5,3.61,-18.25,-18.59,0,*7C
1534442629.48,49637,21.94,74420.3,3.61,-18.11,-18.45,0,*77
1534442630.68,49638,21.94,74418.0,3.59,-18.21,-18.69,0,*7E
1534442631.9,49639,21.94,74416.5,3.59,-18.21,-18.55,0,*70
1534442633.12,49640,21.88,74414.3,3.61,-18.11,-18.49,0,*7B
1534442634.36,49641,21.88,74412.8,3.57,-18.17,-18.59,0,*78
1534442635.58,49642,21.94,74422.0,3.59,-18.17,-18.55,0,*79
1534442636.78,49643,21.88,74414.3,3.59,-18.17,-18.45,0,*79
1534442638.01,49644,21.88,74416.8,3.59,-18.07,-18.35,0,*78
1534442639.21,49645,21.94,74416.3,3.59,-18.17,-18.49,0,*73
1534442640.49,49646,21.94,74416.3,3.61,-18.01,-18.31,0,*73
1534442641.74,49647,21.94,74418.0,3.59,-18.01,-18.31,0,*79
1534442642.94,49648,21.88,74414.3,3.59,-18.07,-18.45,0,*73
1534442644.2,49649,21.88,74414.5,3.57,-18.35,-18.69,0,*73
1534442645.43,49650,21.94,74418.5,3.59,-18.31,-18.65,0,*7D
1534442646.63,49651,21.94,74418.5,3.59,-18.21,-18.49,0,*73
1534442647.85,49652,21.88,74412.8,3.57,-18.21,-18.49,0,*7E
1534442649.05,49653,21.88,74414.8,3.59,-18.21,-18.49,0,*71
1534442650.25,49654,21.94,74418.8,3.59,-18.17,-18.49,0,*73
1534442651.45,49655,21.94,74416.3,3.59,-18.17,-18.49,0,*72
1534442652.65,49656,21.94,74418.5,3.59,-18.17,-18.49,0,*71
1534442653.88,49657,21.88,74418.0,3.59,-18.31,-18.69,0,*76
1534442655.1,49658,21.88,74416.3,3.57,-18.07,-18.41,0,*78
1534442656.33,49659,21.94,74416.5,3.57,-18.21,-18.49,0,*75
1534442657.56,49660,21.88,74414.8,3.59,-18.31,-18.49,0,*70
1534442658.79,49661,21.88,74418.0,3.57,-18.21,-18.49,0,*7E
1534442659.98,49662,21.94,74418.3,3.59,-18.11,-18.49,0,*70
1534442661.2,49663,21.94,74416.5,3.59,-18.21,-18.55,0,*7F
1534442662.43,49664,21.88,74412.0,3.59,-18.01,-18.45,0,*7B
1534442663.63,49665,21.88,74414.8,3.59,-18.17,-18.49,0,*71
1534442664.83,49666,21.88,74416.8,3.59,-18.07,-18.45,0,*7F
1534442666.08,49667,21.88,74414.5,3.57,-18.21,-18.55,0,*75
1534442667.33,49668,21.88,74418.5,3.57,-18.11,-18.55,0,*79
1534442668.58,49669,21.88,74418.0,3.59,-18.01,-18.35,0,*71
1534442669.81,49670,21.94,74418.0,3.57,-18.11,-18.41,0,*75
1534442671.03,49671,21.94,74418.0,3.59,-18.07,-18.35,0,*7E
1534442672.31,49672,21.88,74418.0,3.57,-18.35,-18.59,0,*78
1534442673.54,49673,21.94,74420.0,3.57,-18.41,-18.73,0,*72
1534442674.76,49674,21.88,74416.0,3.59,-18.35,-18.69,0,*73
1534442676.01,49675,21.88,74416.8,3.57,-18.21,-18.55,0,*76
1534442677.24,49676,21.94,74416.5,3.57,-18.21,-18.49,0,*78
1534442678.5,49677,21.88,74418.0,3.59,-18.01,-18.31,0,*7A
1534442679.72,49678,21.94,74416.5,3.57,-18.11,-18.49,0,*75
1534442680.95,49679,21.88,74416.5,3.57,-18.25,-18.69,0,*71
1534442682.21,49680,21.94,74416.3,3.57,-18.35,-18.73,0,*7D
1534442683.45,49681,21.94,74418.8,3.57,-18.25,-18.59,0,*75
1534442684.68,49682,21.94,74418.5,3.57,-18.21,-18.49,0,*73
1534442685.93,49683,21.88,74416.8,3.57,-18.21,-18.55,0,*7F
1534442687.18,49684,21.88,74418.0,3.57,-18.25,-18.55,0,*7C
1534442688.41,49685,21.94,74418.5,3.57,-18.25,-18.69,0,*72
1534442689.66,49686,21.94,74418.8,3.57,-18.25,-18.55,0,*7E
1534442690.89,49687,21.94,74418.8,3.53,-18.17,-18.45,0,*7B
1534442692.09,49688,21.94,74418.3,3.55,-18.11,-18.41,0,*70
1534442693.29,49689,21.94,74418.5,3.55,-18.07,-18.41,0,*76
1534442694.54,49690,21.94,74418.8,3.57,-18.07,-18.35,0,*7F
1534442695.8,49691,21.88,74414.5,3.57,-18.07,-18.35,0,*7E
1534442697.03,49692,21.94,74418.3,3.55,-18.07,-18.35,0,*7F
1534442698.26,49693,21.94,74418.0,3.57,-18.07,-18.41,0,*7F
1534442699.48,49694,21.94,74418.5,3.55,-18.21,-18.55,0,*7B
1534442700.71,49695,21.94,74416.3,3.55,-18.21,-18.55,0,*7A
1534442701.96,49696,21.88,74418.0,3.53,-18.17,-18.55,0,*7A
1534442703.19,49697,21.94,74418.3,3.55,-17.97,-18.49,0,*77
1534442704.42,49698,21.88,74414.3,3.53,-18.25,-18.45,0,*74
1534442705.62,49699,21.94,74416.5,3.55,-18.07,-18.25,0,*75
1534442706.87,49700,21.94,74418.0,3.55,-17.97,-18.35,0,*73
1534442708.09,49701,21.94,74416.3,3.55,-18.25,-18.59,0,*7E
1534442709.31,49702,21.88,74418.0,3.55,-18.11,-18.55,0,*76
1534442710.6,49703,21.88,74414.8,3.53,-18.01,-18.31,0,*72
1534442711.82,49704,21.88,74416.3,3.53,-17.87,-18.25,0,*71
1534442713.04,49705,21.94,74416.8,3.53,-17.73,-18.25,0,*7B
1534442714.3,49706,21.88,74416.5,3.53,-17.97,-18.17,0,*73
1534442715.53,49707,21.88,74418.5,3.55,-17.93,-18.11,0,*76
1534442716.75,49708,21.94,74416.3,3.55,-17.93,-18.25,0,*7E
1534442717.95,49709,21.94,74418.5,3.55,-17.83,-18.25,0,*7E
1534442719.19,49710,21.88,74418.0,3.53,-18.17,-18.59,0,*79
1534442720.44,49711,21.88,74418.0,3.53,-18.01,-18.41,0,*76
1534442721.67,49712,21.88,74416.0,3.55,-18.11,-18.55,0,*77
1534442722.92,49713,21.94,74418.0,3.53,-18.17,-18.55,0,*76
1534442724.14,49714,21.88,74418.0,3.55,-18.21,-18.55,0,*72
1534442725.36,49715,21.88,74418.3,3.55,-18.21,-18.59,0,*7F
1534442726.62,49716,21.94,74418.0,3.53,-18.31,-18.65,0,*74
1534442727.87,49717,21.88,74418.5,3.53,-18.17,-18.55,0,*72
1534442729.12,49718,21.88,74414.8,3.53,-18.25,-18.55,0,*7C
1534442730.35,49719,21.88,74418.3,3.53,-18.41,-18.73,0,*7B
1534442731.58,49720,21.88,74418.8,3.53,-18.25,-18.65,0,*74
1534442732.78,49721,21.88,74414.3,3.51,-18.17,-18.45,0,*74
1534442733.99,49722,21.88,74416.0,3.51,-18.17,-18.45,0,*77
1534442735.19,49723,21.94,74418.0,3.51,-18.17,-18.45,0,*76
1534442736.41,49724,21.94,74416.5,3.51,-18.17,-18.55,0,*70
1534442737.65,49725,21.88,74416.3,3.51,-17.87,-18.31,0,*75
1534442738.91,49726,21.88,74418.0,3.51,-17.97,-18.31,0,*77
1534442740.2,49727,21.94,74416.5,3.53,-17.97,-18.31,0,*74
1534442741.42,49728,21.94,74416.5,3.53,-17.83,-18.17,0,*7A
1534442742.65,49729,21.88,74416.5,3.53,-17.87,-18.25,0,*7E
1534442743.9,49730,21.88,74414.0,3.53,-17.97,-18.41,0,*75
1534442745.16,49731,21.88,74416.3,3.53,-17.97,-18.41,0,*74
1534442746.42,49732,21.88,74416.0,3.51,-17.97,-18.31,0,*72
1534442747.65,49733,21.88,74414.8,3.51,-17.97,-18.41,0,*74
1534442748.91,49734,21.88,74418.0,3.51,-18.01,-18.31,0,*74
1534442750.2,49735,21.88,74418.0,3.53,-17.97,-18.31,0,*77
1534442751.45,49736,21.88,74418.0,3.49,-18.01,-18.45,0,*7C
1534442752.68,49737,21.88,74416.8,3.51,-18.17,-18.55,0,*72
1534442753.9,49738,21.88,74418.3,3.51,-18.25,-18.55,0,*7C
1534442755.13,49739,21.88,74414.3,3.51,-18.01,-18.45,0,*7A
1534442756.35,49740,21.88,74418.5,3.51,-18.11,-18.55,0,*74
1534442757.55,49741,21.88,74416.8,3.51,-18.17,-18.45,0,*72
1534442758.8,49742,21.94,74416.3,3.49,-18.17,-18.59,0,*75
1534442760.02,49743,21.88,74414.3,3.51,-18.25,-18.55,0,*70
1534442761.25,49744,21.88,74414.8,3.51,-18.17,-18.55,0,*76
1534442762.5,49745,21.88,74416.3,3.49,-18.31,-18.65,0,*79
1534442763.76,49746,21.88,74416.0,3.49,-18.07,-18.35,0,*7A
1534442764.99,49747,21.88,74414.8,3.51,-17.97,-18.25,0,*75
1534442766.22,49748,21.88,74418.5,3.51,-17.97,-18.41,0,*78
1534442767.47,49749,21.94,74416.3,3.49,-17.93,-18.45,0,*70
1534442768.75,49750,21.94,74418.0,3.49,-17.93,-18.31,0,*7B
1534442769.95,49751,21.94,74420.0,3.51,-17.87,-18.25,0,*73
1534442771.21,49752,21.88,74418.8,3.49,-18.01,-18.21,0,*7C
1534442772.4,49753,21.88,74418.0,3.51,-17.73,-18.17,0,*7B
1534442773.63,49754,21.94,74418.3,3.49,-17.87,-18.21,0,*7B
1534442774.88,49755,21.94,74416.3,3.49,-17.79,-18.21,0,*7B
1534442776.09,49756,21.88,74414.3,3.51,-17.69,-18.11,0,*73
1534442777.32,49757,21.88,74416.0,3.51,-17.73,-18.01,0,*78
1534442778.54,49758,21.88,74412.3,3.49,-17.73,-18.17,0,*79
1534442779.75,49759,21.88,74418.3,3.51,-17.83,-18.11,0,*78
1534442780.96,49760,21.88,74414.5,3.51,-17.83,-18.11,0,*72
1534442782.16,49761,21.94,74416.3,3.51,-17.73,-18.17,0,*7A
1534442783.36,49762,21.88,74416.3,3.51,-17.83,-18.17,0,*76
1534442784.62,49763,21.88,74414.8,3.49,-17.87,-18.31,0,*7E
1534442785.84,49764,21.94,74420.0,3.53,-17.83,-18.25,0,*73
1534442787.07,49765,21.88,74418.0,3.53,-17.83,-18.17,0,*73
1534442788.28,49766,21.88,74416.8,3.51,-17.73,-18.11,0,*7B
1534442789.49,49767,21.94,74418.3,3.51,-17.83,-18.11,0,*75
1534442790.69,49768,21.88,74418.0,3.51,-17.83,-18.17,0,*7C
1534442791.88,49769,21.88,74414.3,3.51,-17.73,-18.17,0,*72
1534442793.09,49770,21.88,74416.3,3.51,-17.73,-18.11,0,*7C
1534442794.29,49771,21.88,74418.8,3.51,-17.83,-18.17,0,*74
1534442795.52,49772,21.88,74416.5,3.53,-17.83,-18.17,0,*75
1534442796.73,49773,21.88,74416.5,3.51,-17.83,-18.11,0,*70
1534442797.92,49774,21.88,74416.5,3.51,-17.83,-18.25,0,*70
1534442799.15,49775,21.88,74418.0,3.53,-17.87,-18.17,0,*76
1534442800.35,49776,21.88,74416.8,3.51,-17.73,-18.17,0,*7C
1534442801.55,49777,21.88,74416.5,3.51,-17.83,-18.25,0,*73
1534442802.77,49778,21.88,74416.3,3.53,-17.83,-18.17,0,*7F
1534442804.03,49779,21.88,74414.8,3.53,-17.73,-18.01,0,*76
1534442805.28,49780,21.88,74418.5,3.55,-17.63,-17.97,0,*77
1534442806.5,49781,21.88,74412.3,3.53,-17.83,-18.25,0,*78
1534442807.73,49782,21.88,74416.3,3.53,-17.83,-18.25,0,*7B
1534442808.95,49783,21.88,74416.8,3.53,-17.83,-18.25,0,*7A
1534442810.24,49784,21.88,74416.5,3.53,-17.97,-18.31,0,*7D
1534442811.44,49785,21.88,74414.5,3.51,-18.11,-18.45,0,*7C
1534442812.64,49786,21.88,74418.0,3.51,-18.11,-18.41,0,*7B
1534442813.9,49787,21.88,74416.3,3.51,-17.97,-18.31,0,*7C
1534442815.11,49788,21.88,74414.0,3.51,-17.73,-18.11,0,*7B
1534442816.34,49789,21.88,74418.0,3.51,-17.97,-18.41,0,*75
1534442817.57,49790,21.88,74418.8,3.49,-18.17,-18.49,0,*7B
1534442818.83,49791,21.88,74416.5,3.51,-17.97,-18.31,0,*7B
1534442820.06,49792,21.88,74418.0,3.51,-18.07,-18.31,0,*7E
1534442821.26,49793,21.88,74416.3,3.51,-17.73,-18.17,0,*77
1534442822.46,49794,21.88,74416.5,3.51,-17.83,-18.25,0,*7E
1534442823.65,49795,21.88,74414.3,3.51,-17.69,-18.17,0,*7A
1534442824.88,49796,21.88,74418.8,3.49,-17.73,-18.17,0,*7B
1534442826.1,49797,21.88,74418.3,3.51,-17.73,-18.01,0,*74
1534442827.33,49798,21.88,74418.3,3.51,-17.69,-18.01,0,*70
1534442828.56,49799,21.88,74416.0,3.51,-17.69,-18.01,0,*71
1534442829.76,49800,21.88,74416.5,3.51,-17.83,-18.25,0,*7C
1534442831.04,49801,21.88,74412.0,3.49,-17.93,-18.35,0,*74
1534442832.3,49802,21.88,74416.0,3.49,-17.87,-18.31,0,*76
1534442833.5,49803,21.88,74418.5,3.51,-17.73,-18.17,0,*71
1534442834.75,49804,21.88,74414.8,3.53,-17.97,-18.41,0,*7D
1534442835.95,49805,21.88,74416.3,3.51,-18.11,-18.41,0,*7F
1534442837.23,49806,21.88,74416.5,3.49,-18.01,-18.35,0,*77
1534442838.47,49807,21.88,74416.3,3.51,-17.87,-18.31,0,*7A
1534442839.75,49808,21.88,74412.8,3.49,-18.01,-18.31,0,*7D
1534442840.95,49809,21.88,74418.0,3.51,-18.07,-18.49,0,*7C
1534442842.21,49810,21.88,74418.8,3.49,-18.07,-18.35,0,*76
1534442843.44,49811,21.88,74418.3,3.51,-18.01,-18.41,0,*7B
1534442844.64,49812,21.88,74414.8,3.51,-17.83,-18.17,0,*7E
1534442845.89,49813,21.88,74412.8,3.49,-17.79,-18.21,0,*76
1534442847.12,49814,21.88,74416.8,3.51,-17.63,-18.11,0,*70
1534442848.37,49815,21.88,74418.5,3.49,-17.79,-18.07,0,*74
1534442849.6,49816,21.88,74418.3,3.49,-17.87,-18.21,0,*72
1534442850.88,49817,21.88,74412.3,3.49,-18.01,-18.35,0,*77
1534442852.17,49818,21.88,74414.3,3.49,-17.93,-18.31,0,*78
1534442853.42,49819,21.88,74414.5,3.49,-17.93,-18.21,0,*78
1534442854.65,49820,21.88,74418.8,3.49,-17.87,-18.21,0,*77
1534442855.93,49821,21.88,74414.0,3.49,-18.01,-18.35,0,*72
1534442857.19,49822,21.88,74418.3,3.49,-18.07,-18.35,0,*77
1534442858.47,49823,21.88,74418.3,3.49,-17.93,-18.31,0,*70
1534442859.7,49824,21.88,74418.5,3.49,-18.17,-18.49,0,*7B
1534442860.99,49825,21.88,74418.3,3.49,-17.93,-18.31,0,*76
1534442862.27,49826,21.88,74418.3,3.49,-17.93,-18.31,0,*75
1534442863.52,49827,21.88,74416.5,3.49,-18.01,-18.49,0,*7F
1534442864.81,49828,21.88,74414.8,3.49,-18.01,-18.35,0,*7B
1534442866.0,49829,21.88,74416.3,3.51,-17.87,-18.25,0,*73
1534442867.29,49830,21.88,74412.8,3.49,-17.79,-18.31,0,*76
1534442868.53,49831,21.88,74416.5,3.45,-17.93,-18.25,0,*7A
1534442869.79,49832,21.88,74416.5,3.49,-17.87,-18.31,0,*75
1534442871.05,49833,21.88,74416.5,3.49,-17.87,-18.31,0,*74
1534442872.31,49834,21.88,74414.5,3.49,-17.87,-18.31,0,*73
1534442873.57,49835,21.94,74420.0,3.49,-17.93,-18.45,0,*74
1534442874.85,49836,21.88,74414.5,3.49,-18.01,-18.35,0,*74
1534442876.1,49837,21.88,74416.3,3.49,-18.01,-18.45,0,*72
1534442877.33,49838,21.88,74418.5,3.49,-17.87,-18.21,0,*7E
1534442878.58,49839,21.88,74418.8,3.49,-17.79,-18.21,0,*7E
1534442879.83,49840,21.88,74414.0,3.49,-17.79,-18.17,0,*75
1534442881.05,49841,21.88,74418.3,3.45,-17.83,-18.25,0,*7C
1534442882.33,49842,21.88,74418.0,3.45,-17.93,-18.35,0,*7F
1534442883.61,49843,21.88,74418.5,3.45,-17.93,-18.35,0,*7E
1534442884.89,49844,21.88,74412.3,3.45,-17.97,-18.35,0,*7D
1534442886.17,49845,21.88,74418.0,3.45,-17.97,-18.35,0,*7C
1534442887.42,49846,21.88,74416.5,3.49,-17.93,-18.21,0,*72
1534442888.68,49847,21.88,74416.0,3.49,-17.79,-18.07,0,*73
1534442889.93,49848,21.88,74416.5,3.45,-17.97,-18.41,0,*72
1534442891.19,49849,21.88,74418.5,3.43,-17.97,-18.35,0,*76
1534442892.44,49850,21.88,74416.3,3.45,-17.97,-18.41,0,*7B
1534442893.66,49851,21.88,74414.5,3.45,-18.07,-18.41,0,*7C
1534442894.91,49852,21.88,74416.0,3.45,-17.93,-18.25,0,*7F
1534442896.13,49853,21.88,74418.3,3.43,-17.79,-18.11,0,*7B
1534442897.37,49854,21.88,74418.0,3.45,-17.79,-18.25,0,*7D
1534442898.63,49855,21.88,74416.5,3.43,-17.97,-18.35,0,*7B
1534442899.87,49856,21.88,74416.0,3.45,-17.93,-18.25,0,*7B
1534442901.09,49857,21.88,74414.5,3.45,-17.83,-18.25,0,*7B